Location: Newark
(35.2672°N, 80.7344°W)
Time: 19:44:00
(UTC+00:00)

Vanguard 2 Rocket - Pass Details

Date: 19 January 2020
Orbit: 554 x 3326 km, 32.9° (Epoch: 16 February)

Event Time Altitude Azimuth Distance (km) Brightness Sun altitude
Rises 10:58:32 0° 227° (SW) 2,937 - -18.5°
Exits shadow 11:00:18 - 220° (SW) 2,297 8.7 -18.2°
Reaches altitude 10° 11:00:38 10° 218° (SW) 2,186 8.6 -18.1°
Maximum altitude 11:05:14 37° 150° (SSE) 1,404 8.2 -17.2°
Drops below altitude 10° 11:12:25 10° 87° (E) 3,442 11.0 -15.8°
Sets 11:16:34 0° 80° (E) 4,907 11.9 -14.9°
